PBO Station Position Time Series. Reference Frame : NAM14
Format Version,1.1.0
4-character ID,P440
Station name,MeridianSDWA2006
Begin Date, 2006-03-25
End Date, 2019-10-07
Release Date, 2019-10-08
Reference position, 48.8561931734 North Latitude, -122.4933414925 East Longitude, 6.36307 meters elevation,
Date, North (mm), East (mm), Vertical (mm), North Std. Deviation (mm), East Std. Deviation (mm),              Vertical Std. Deviation (mm), Quality,
2006-03-25,0.00, 0.00, 0.00, 2.38, 1.59, 7.19, repro,
2006-03-26,-1.25, -0.41, 2.27, 2.37, 1.58, 7.12, repro,
2006-03-27,0.09, 1.05, -5.02, 2.35, 1.58, 7.10, repro,
2006-03-28,0.15, 0.64, 1.03, 2.29, 1.58, 7.00, repro,
2006-03-29,0.33, 0.19, -2.65, 2.25, 1.56, 6.99, repro,
2006-03-30,0.84, -0.47, -3.90, 2.29, 1.56, 7.07, repro,
2006-03-31,0.07, -0.55, 0.79, 2.25, 1.55, 6.98, repro,
2006-04-01,-0.26, -0.68, 1.25, 2.24, 1.53, 6.91, repro,
2006-04-02,0.51, 0.21, -6.04, 2.23, 1.54, 6.92, repro,
2006-04-03,1.35, 0.99, -5.74, 2.24, 1.55, 6.96, repro,
2006-04-04,-0.19, 0.66, -3.42, 2.27, 1.55, 7.00, repro,
2006-04-05,-0.18, -0.40, 1.17, 2.30, 1.56, 7.08, repro,
2006-04-06,-0.86, -0.99, -4.21, 2.28, 1.57, 7.14, repro,
2006-04-07,-0.19, 0.15, -6.14, 2.33, 1.58, 7.23, repro,
2006-04-08,0.45, -0.21, -5.15, 2.31, 1.56, 7.08, repro,
2006-04-09,0.06, 0.40, -5.24, 2.26, 1.56, 7.03, repro,
2006-04-10,0.09, -0.46, -2.52, 2.29, 1.55, 7.09, repro,
2006-04-11,1.40, 0.89, -1.98, 2.38, 1.62, 7.43, repro,
2006-04-12,0.94, -0.32, -4.92, 2.30, 1.57, 7.22, repro,
2006-04-13,0.14, 0.03, -1.94, 2.24, 1.55, 6.98, repro,
2006-04-14,-0.31, 0.97, 0.43, 2.25, 1.56, 7.03, repro,
2006-04-15,-0.49, 0.12, 9.90, 2.35, 1.59, 7.26, repro,
2006-04-16,0.81, 0.29, -0.05, 2.26, 1.55, 7.02, repro,
2006-04-17,0.83, -0.34, -0.80, 2.27, 1.55, 7.03, repro,
2006-04-18,1.29, 1.48, -7.38, 2.27, 1.56, 7.08, repro,
2006-04-19,0.60, 0.63, -10.71, 2.23, 1.55, 6.97, repro,
2006-04-20,0.84, 0.61, -2.53, 2.31, 1.59, 7.19, repro,
2006-04-21,0.68, -0.19, -7.53, 2.27, 1.54, 7.03, repro,
2006-04-22,1.83, 0.84, -1.64, 2.29, 1.59, 7.18, repro,
2006-04-23,2.69, 1.27, -6.00, 2.32, 1.61, 7.28, repro,
2006-04-24,1.67, 1.17, -6.08, 2.30, 1.59, 7.19, repro,
2006-04-25,1.51, -0.41, -5.16, 2.28, 1.59, 7.12, repro,
2006-04-26,-0.68, 0.96, -0.89, 2.32, 1.59, 7.25, repro,
2006-04-27,0.51, 1.25, -4.30, 2.40, 1.60, 7.34, repro,
2006-04-28,1.31, 1.12, -6.58, 2.32, 1.56, 7.09, repro,
2006-04-29,1.94, 0.90, -0.84, 2.26, 1.54, 7.06, repro,
2006-04-30,3.44, 0.60, -9.15, 2.28, 1.56, 7.12, repro,
2006-05-01,2.65, 0.30, -9.19, 2.27, 1.56, 7.08, repro,
2006-05-02,2.33, 1.09, -9.28, 2.27, 1.54, 7.02, repro,
2006-05-03,0.78, 1.35, -0.72, 2.27, 1.55, 7.04, repro,
2006-05-04,0.81, 0.55, -6.91, 2.25, 1.54, 7.01, repro,
2006-05-05,1.93, 0.84, -3.01, 2.25, 1.55, 7.02, repro,
2006-05-06,1.53, -1.00, -0.14, 2.28, 1.56, 7.08, repro,
2006-05-07,1.88, 0.06, 0.39, 2.27, 1.54, 7.04, repro,
2006-05-08,1.60, -1.28, -5.01, 2.27, 1.54, 7.00, repro,
2006-05-09,1.03, 0.48, -5.27, 2.32, 1.57, 7.09, repro,
2006-05-10,1.67, 0.56, -8.00, 2.27, 1.55, 7.05, repro,
2006-05-11,1.92, -0.49, -3.33, 2.29, 1.55, 7.10, repro,
2006-05-12,1.63, 0.34, -5.99, 2.29, 1.57, 7.18, repro,
2006-05-13,2.74, -0.39, -9.27, 2.27, 1.54, 7.03, repro,
2006-05-14,2.27, 0.55, -7.95, 2.27, 1.55, 7.06, repro,
2006-05-15,1.47, 0.83, -7.31, 2.26, 1.54, 7.04, repro,
2006-05-16,1.33, 0.62, -4.88, 2.28, 1.58, 7.24, repro,
2006-05-17,1.74, -0.73, -5.24, 2.29, 1.58, 7.27, repro,
2006-05-18,-0.03, -0.62, -1.68, 2.29, 1.56, 7.10, repro,
2006-05-19,1.61, 0.77, -2.90, 2.35, 1.58, 7.15, repro,
2006-05-20,1.54, -0.20, 2.53, 2.32, 1.57, 7.12, repro,
2006-05-21,0.94, 0.06, 2.94, 2.34, 1.58, 7.17, repro,
2006-05-22,2.86, -0.39, 3.83, 2.36, 1.62, 7.35, repro,
2006-05-23,0.42, 0.74, -2.60, 2.36, 1.58, 7.23, repro,
2006-05-24,-2.75, -0.01, -4.53, 2.32, 1.57, 7.13, repro,
2006-05-25,2.82, 0.06, -5.21, 2.38, 1.62, 7.32, repro,
2006-05-26,1.80, -0.22, -0.81, 2.38, 1.61, 7.31, repro,
2006-05-27,1.90, -0.10, -2.04, 2.33, 1.58, 7.17, repro,
2006-05-28,1.56, -0.15, -3.04, 2.34, 1.59, 7.22, repro,
2006-05-29,1.17, -0.52, -5.88, 2.35, 1.57, 7.18, repro,
2006-05-30,0.91, -0.49, -12.27, 2.32, 1.59, 7.21, repro,
2006-05-31,1.09, 0.22, -3.86, 2.32, 1.57, 7.15, repro,
2006-06-01,1.11, -0.03, -6.05, 2.39, 1.61, 7.28, repro,
2006-06-02,-0.28, 1.93, -4.17, 2.53, 1.68, 7.67, repro,
2006-06-03,1.24, 0.34, -0.88, 2.39, 1.61, 7.33, repro,
2006-06-04,0.66, -1.08, 0.85, 2.37, 1.61, 7.34, repro,
2006-06-05,0.33, -0.54, 0.52, 2.36, 1.60, 7.28, repro,
2006-06-06,-0.97, 0.19, 0.88, 2.40, 1.61, 7.32, repro,
2006-06-07,1.41, 1.55, -10.26, 2.42, 1.60, 7.31, repro,
2006-06-08,0.80, -0.60, -7.73, 2.34, 1.60, 7.21, repro,
2006-06-09,1.34, -0.09, -6.14, 2.33, 1.58, 7.18, repro,
2006-06-10,2.74, -0.54, 2.39, 2.30, 1.59, 7.14, repro,
2006-06-11,-0.06, 1.14, 0.06, 2.38, 1.61, 7.31, repro,
2006-06-12,1.47, 0.48, -5.71, 2.33, 1.57, 7.11, repro,
2006-06-13,1.57, -0.86, 1.22, 2.34, 1.58, 7.17, repro,
2006-06-14,0.68, -0.36, 2.48, 2.31, 1.59, 7.13, repro,
2006-06-15,0.84, -0.44, 5.26, 2.31, 1.58, 7.11, repro,
2006-06-16,0.47, -0.59, -1.53, 2.33, 1.58, 7.20, repro,
2006-06-17,1.41, 0.58, -1.62, 2.32, 1.58, 7.15, repro,
2006-06-18,0.24, 0.98, -2.87, 2.37, 1.63, 7.33, repro,
2006-06-19,1.04, 0.41, -4.62, 2.36, 1.64, 7.34, repro,
2006-06-20,-0.28, 0.54, 0.99, 2.36, 1.63, 7.27, repro,
2006-06-21,1.09, 0.36, -2.45, 2.37, 1.62, 7.32, repro,
2006-06-22,0.17, 1.56, -0.31, 2.37, 1.62, 7.25, repro,
2006-06-23,1.15, 0.90, -9.78, 2.37, 1.64, 7.38, repro,
2006-06-24,1.66, 1.37, -11.59, 2.41, 1.65, 7.43, repro,
2006-06-25,0.59, 1.57, -9.67, 2.36, 1.63, 7.25, repro,
2006-07-07,1.56, 0.39, -1.89, 2.44, 1.66, 7.73, repro,
2006-07-08,0.91, 1.50, -1.38, 2.31, 1.58, 7.31, repro,
2006-07-09,0.89, 0.54, 1.56, 2.33, 1.59, 7.30, repro,
2006-07-10,-0.24, -0.26, 4.80, 2.32, 1.59, 7.34, repro,
2006-07-11,1.07, -0.08, 3.30, 2.35, 1.59, 7.35, repro,
2006-07-12,1.61, 1.18, -2.33, 2.33, 1.59, 7.35, repro,
2006-07-13,-0.76, 0.70, 7.90, 2.31, 1.59, 7.32, repro,
2006-07-14,-1.51, -0.25, 6.61, 2.32, 1.59, 7.29, repro,
2006-07-15,1.15, 0.76, 2.75, 2.31, 1.58, 7.27, repro,
2006-07-16,1.06, -0.08, -2.20, 2.36, 1.58, 7.30, repro,
2006-07-17,1.71, -0.27, 0.06, 2.37, 1.64, 7.51, repro,
2006-07-18,1.08, 0.47, 1.63, 2.26, 1.55, 7.05, repro,
2006-07-19,1.71, -0.35, 4.45, 2.23, 1.55, 6.99, repro,
2006-07-20,2.00, 1.19, -0.15, 2.25, 1.55, 7.05, repro,
2006-07-21,1.37, 0.07, 1.69, 2.26, 1.54, 7.03, repro,
2006-07-22,2.57, -0.15, -2.90, 2.27, 1.55, 7.08, repro,
2006-07-23,3.31, 1.25, 5.20, 2.28, 1.56, 7.11, repro,
2006-07-24,0.74, -0.52, 8.10, 2.26, 1.56, 7.07, repro,
2006-07-25,1.17, -0.99, 1.09, 2.27, 1.56, 7.11, repro,
2006-07-26,0.92, -0.82, 3.11, 2.25, 1.55, 7.04, repro,
2006-07-27,1.90, -0.55, 2.95, 2.25, 1.55, 7.05, repro,
2006-07-28,-0.06, 0.11, 2.86, 2.28, 1.56, 7.11, repro,
2006-07-29,1.68, -0.82, 4.59, 2.27, 1.56, 7.08, repro,
2006-07-30,1.80, -0.59, 8.40, 2.29, 1.60, 7.18, repro,
2006-07-31,1.43, -0.39, 8.30, 2.26, 1.55, 7.06, repro,
2006-08-01,2.41, -0.91, 8.22, 2.23, 1.54, 7.00, repro,
2006-08-02,2.32, -1.12, 3.97, 2.31, 1.61, 7.34, repro,
2006-08-03,1.86, -1.07, 1.14, 2.32, 1.61, 7.31, repro,
2006-08-04,2.18, 0.48, 4.57, 2.36, 1.64, 7.36, repro,
2006-08-05,1.38, -0.27, 4.62, 2.35, 1.66, 7.45, repro,
2006-08-06,2.19, -0.41, 4.96, 2.26, 1.59, 7.18, repro,
2006-08-07,2.78, -0.64, 6.76, 2.30, 1.61, 7.32, repro,
2006-08-08,1.70, -1.55, 2.25, 2.26, 1.55, 7.06, repro,
2006-08-09,1.42, 0.34, 5.98, 2.28, 1.57, 7.13, repro,
2006-08-10,2.03, -0.75, 8.26, 2.29, 1.57, 7.16, repro,
2006-08-11,0.89, 0.04, 4.74, 2.27, 1.55, 7.09, repro,
2006-08-12,1.27, 0.35, 2.30, 2.24, 1.54, 7.04, repro,
2006-08-13,2.41, -0.07, 5.79, 2.27, 1.55, 7.07, repro,
2006-08-14,0.52, -0.63, 10.79, 2.30, 1.56, 7.16, repro,
2006-08-15,2.11, 0.33, 13.27, 2.37, 1.60, 7.29, repro,
2006-08-16,0.09, 0.86, 5.21, 2.30, 1.57, 7.18, repro,
2006-08-17,1.53, 0.07, 4.22, 2.24, 1.55, 7.04, repro,
2006-08-18,0.73, 0.92, 6.61, 2.35, 1.61, 7.25, repro,
2006-08-19,2.79, 0.49, 7.65, 2.28, 1.56, 7.13, repro,
2006-08-20,1.26, 0.22, 8.74, 2.29, 1.57, 7.15, repro,
2006-08-21,1.82, 0.52, 3.86, 2.31, 1.59, 7.25, repro,
2006-08-22,1.61, -0.83, 13.43, 2.27, 1.58, 7.16, repro,
2006-08-23,1.16, -0.84, 16.27, 2.25, 1.56, 7.04, repro,
2006-08-24,1.12, 0.72, 13.51, 2.26, 1.56, 7.06, repro,
2006-08-25,0.28, -0.06, 13.96, 2.34, 1.63, 7.43, repro,
2006-08-26,0.08, 0.19, 7.05, 2.38, 1.67, 7.60, repro,
2006-08-27,0.92, -0.07, 8.93, 2.37, 1.68, 7.57, repro,
2006-08-28,0.58, 0.46, 13.60, 2.35, 1.66, 7.48, repro,
2006-08-29,-0.04, -0.66, 12.07, 2.40, 1.71, 7.61, repro,
2006-08-30,0.53, 0.03, 17.10, 2.35, 1.66, 7.46, repro,
2006-08-31,1.48, 0.13, 10.51, 2.39, 1.69, 7.64, repro,
2006-09-01,3.07, 0.56, 1.09, 2.35, 1.67, 7.51, repro,
2006-09-02,0.87, 0.79, 7.88, 2.34, 1.68, 7.50, repro,
2006-09-03,0.77, -0.31, 14.28, 2.36, 1.66, 7.44, repro,
2006-09-04,1.76, -0.28, 6.91, 2.43, 1.69, 7.63, repro,
2006-09-05,2.35, 0.31, 5.19, 2.45, 1.71, 7.73, repro,
2006-09-06,1.60, -0.64, 6.21, 2.38, 1.68, 7.60, repro,
2006-09-07,2.46, -0.36, 13.29, 2.40, 1.71, 7.77, repro,
2006-09-08,1.97, 0.24, 15.27, 2.39, 1.69, 7.65, repro,
2006-09-09,0.98, -2.89, 13.60, 2.32, 1.61, 7.26, repro,
2006-09-10,0.51, -0.73, 13.44, 2.33, 1.63, 7.34, repro,
2006-09-11,1.81, -0.96, 11.38, 2.32, 1.63, 7.37, repro,
2006-09-12,1.28, -0.11, 7.64, 2.31, 1.62, 7.32, repro,
2006-09-13,2.41, -1.44, 14.42, 2.32, 1.62, 7.32, repro,
2006-09-14,1.39, -0.81, 15.81, 2.41, 1.70, 7.55, repro,
2006-09-15,1.36, -0.57, 15.04, 2.36, 1.62, 7.30, repro,
2006-09-16,-0.48, -0.45, 12.69, 2.29, 1.58, 7.19, repro,
2006-09-17,0.87, 0.27, 14.47, 2.27, 1.58, 7.20, repro,
2006-09-18,1.21, -1.49, 24.46, 2.30, 1.61, 7.31, repro,
2006-09-19,0.38, 0.17, 19.79, 2.28, 1.56, 7.10, repro,
2006-09-20,0.47, -0.50, 16.54, 2.28, 1.57, 7.11, repro,
2006-09-21,-0.05, -0.47, 14.45, 2.33, 1.63, 7.33, repro,
2006-09-22,1.12, 0.41, 12.50, 2.37, 1.67, 7.48, repro,
2006-09-23,1.33, -0.10, 6.04, 2.33, 1.61, 7.29, repro,
2006-09-24,1.52, -0.23, 4.85, 2.34, 1.61, 7.28, repro,
2006-09-25,1.58, -0.07, 7.99, 2.30, 1.58, 7.13, repro,
2006-09-26,2.14, -0.66, 4.97, 2.27, 1.58, 7.11, repro,
2006-09-27,1.50, 0.06, 6.30, 2.31, 1.60, 7.24, repro,
2006-09-28,2.35, -0.59, 11.13, 2.29, 1.60, 7.20, repro,
2006-09-29,0.89, -0.57, 9.33, 2.32, 1.60, 7.29, repro,
2006-09-30,0.91, -0.15, 12.80, 2.33, 1.64, 7.45, repro,
2006-10-01,0.80, -0.96, 10.56, 2.27, 1.59, 7.12, repro,
2006-10-02,0.34, -0.87, 2.53, 2.35, 1.67, 7.43, repro,
2006-10-03,0.86, 0.22, 4.54, 2.41, 1.70, 7.67, repro,
2006-10-04,0.34, -0.20, 11.73, 2.32, 1.60, 7.29, repro,
2006-10-05,0.30, -0.24, 12.93, 2.31, 1.59, 7.19, repro,
2006-10-06,0.50, -0.25, 10.00, 2.29, 1.58, 7.17, repro,
2006-10-07,0.93, -0.05, 0.75, 2.39, 1.67, 7.55, repro,
2006-10-08,0.81, 0.14, 10.96, 2.35, 1.64, 7.37, repro,
2006-10-09,0.73, 0.10, 4.42, 2.32, 1.61, 7.32, repro,
2006-10-10,2.61, 0.93, -6.33, 2.37, 1.63, 7.56, repro,
2006-10-11,0.76, -0.25, 8.85, 2.32, 1.62, 7.42, repro,
2006-10-12,1.12, -0.28, 11.81, 2.28, 1.58, 7.11, repro,
2006-10-13,0.49, -0.01, 12.83, 2.25, 1.56, 7.09, repro,
2006-10-14,0.62, 0.02, 13.85, 2.29, 1.61, 7.26, repro,
2006-10-15,1.81, -0.07, 17.94, 2.33, 1.63, 7.40, repro,
2006-10-16,1.47, 0.12, 18.23, 2.29, 1.59, 7.33, repro,
2006-10-17,1.89, 0.18, 14.77, 2.30, 1.63, 7.43, repro,
2006-10-18,0.44, -0.03, 13.41, 2.24, 1.56, 7.09, repro,
2006-10-19,-0.22, -0.37, 14.52, 2.55, 1.73, 7.95, repro,
2006-10-20,0.08, 0.66, 9.93, 2.64, 1.82, 8.50, repro,
2006-10-21,0.80, 0.96, -1.08, 2.42, 1.67, 7.69, repro,
2006-10-22,-0.30, 0.53, 4.52, 2.39, 1.65, 7.66, repro,
2006-10-23,1.03, -0.86, 7.04, 2.37, 1.64, 7.40, repro,
2006-10-24,0.32, -0.08, 9.89, 2.54, 1.73, 7.91, repro,
2006-10-25,1.89, 0.79, 11.86, 2.52, 1.70, 7.88, repro,
2006-10-26,0.51, 0.14, 5.40, 2.32, 1.64, 7.49, repro,
2006-10-27,2.54, 0.89, 3.35, 2.26, 1.61, 7.22, repro,
2006-10-28,0.69, 0.59, 4.22, 2.33, 1.60, 7.43, repro,
2006-10-29,2.25, 0.06, 11.96, 2.25, 1.60, 7.31, repro,
2006-10-30,0.84, 0.50, 10.68, 2.26, 1.58, 7.17, repro,
2006-10-31,1.20, 0.70, 8.90, 2.28, 1.59, 7.30, repro,
2006-11-01,0.49, -0.45, 4.75, 2.48, 1.72, 7.84, repro,
2006-11-02,1.70, -0.01, 13.10, 2.24, 1.58, 7.20, repro,
2006-11-03,2.32, 0.11, 10.80, 2.27, 1.62, 7.34, repro,
2006-11-04,1.87, 0.64, 8.49, 2.36, 1.65, 7.46, repro,
2006-11-05,2.61, 1.52, 9.62, 2.42, 1.70, 7.70, repro,
2006-11-06,1.46, 0.11, 7.82, 2.24, 1.57, 7.16, repro,
2006-11-07,1.03, -1.65, 8.79, 2.36, 1.65, 7.41, repro,
2006-11-08,1.33, -0.27, 5.29, 2.34, 1.63, 7.31, repro,
2006-11-09,2.97, 0.73, 11.35, 2.42, 1.70, 7.56, repro,
2006-11-10,1.75, 0.48, 4.75, 2.33, 1.59, 7.22, repro,
2006-11-11,2.13, 0.27, 7.62, 2.37, 1.64, 7.41, repro,
2006-11-12,-0.65, 0.61, 3.56, 2.36, 1.65, 7.35, repro,
2006-11-13,0.76, -0.75, 18.00, 2.32, 1.62, 7.19, repro,
2006-11-14,0.43, 0.62, 12.69, 2.22, 1.55, 7.04, repro,
2006-11-15,2.03, 0.12, 6.34, 2.26, 1.58, 7.26, repro,
2006-11-16,2.52, 0.71, 9.48, 2.24, 1.57, 7.15, repro,
2006-11-17,0.05, -0.47, 4.99, 2.23, 1.57, 7.15, repro,
2006-11-18,3.60, 0.95, 1.96, 2.20, 1.57, 7.12, repro,
2006-11-19,2.04, 1.00, -0.58, 2.20, 1.56, 7.03, repro,
2006-11-20,1.26, -0.01, 5.51, 2.22, 1.57, 7.06, repro,
2006-11-21,1.06, -0.30, 4.99, 2.21, 1.57, 7.07, repro,
2006-11-22,0.77, -0.45, 3.12, 2.21, 1.58, 7.12, repro,
2006-11-23,2.67, 1.95, 0.70, 2.25, 1.63, 7.30, repro,
2006-11-24,1.30, 0.34, -3.21, 2.22, 1.62, 7.20, repro,
2006-11-25,1.52, -0.83, -5.65, 2.20, 1.56, 7.01, repro,
2006-11-26,1.60, 0.23, -3.88, 2.22, 1.57, 7.11, repro,
2006-11-27,1.82, 0.48, 0.13, 2.26, 1.59, 7.14, repro,
2006-11-28,2.38, 0.40, -0.57, 2.22, 1.57, 7.09, repro,
2006-11-29,1.76, 0.98, -6.01, 2.21, 1.57, 7.11, repro,
2006-11-30,1.24, 0.61, -3.03, 2.21, 1.57, 7.04, repro,
2006-12-01,1.48, 1.03, -9.19, 2.22, 1.57, 7.07, repro,
2006-12-02,0.19, 1.15, -12.77, 2.23, 1.58, 7.13, repro,
2006-12-03,0.38, 1.23, -9.98, 2.24, 1.58, 7.12, repro,
2006-12-04,0.30, 1.41, -6.72, 2.28, 1.59, 7.18, repro,
2006-12-05,1.45, 0.77, -8.42, 2.26, 1.61, 7.26, repro,
2006-12-06,1.72, 0.95, -5.97, 2.25, 1.62, 7.24, repro,
2006-12-07,0.15, 1.00, -8.72, 2.25, 1.63, 7.28, repro,
2006-12-08,0.48, 1.11, 0.14, 2.26, 1.62, 7.31, repro,
2006-12-09,-0.03, 0.72, 2.92, 2.30, 1.64, 7.38, repro,
2006-12-10,1.32, 0.31, 3.43, 2.30, 1.64, 7.39, repro,
2006-12-11,1.36, 1.28, 6.72, 2.22, 1.59, 7.10, repro,
2006-12-12,1.24, 0.03, -2.47, 2.27, 1.63, 7.25, repro,
2006-12-13,1.31, 0.12, -2.29, 2.25, 1.65, 7.37, repro,
2006-12-14,0.14, -0.73, 11.55, 2.22, 1.59, 7.15, repro,
2006-12-15,1.54, -0.01, 6.42, 2.31, 1.68, 7.59, repro,
2006-12-16,1.94, -0.58, 2.75, 2.29, 1.65, 7.32, repro,
2006-12-17,1.74, 0.08, -2.79, 2.28, 1.67, 7.48, repro,
2006-12-18,1.27, 1.46, 0.13, 2.56, 1.87, 8.40, repro,
2006-12-19,1.27, 0.14, -6.46, 2.38, 1.79, 7.88, repro,
2006-12-20,2.20, 0.29, -5.10, 2.31, 1.72, 7.67, repro,
2006-12-21,0.68, -0.18, -2.98, 2.24, 1.66, 7.43, repro,
2006-12-22,1.29, -0.53, -6.22, 2.43, 1.84, 8.18, repro,
2006-12-23,3.11, -0.11, -5.35, 2.27, 1.68, 7.43, repro,
2006-12-24,4.03, 0.31, -4.77, 2.21, 1.60, 7.06, repro,
2006-12-25,2.08, 0.53, -6.89, 2.26, 1.69, 7.45, repro,
2006-12-26,1.47, -0.74, -1.56, 2.29, 1.68, 7.48, repro,
2006-12-27,2.80, 0.40, -2.71, 3.66, 2.48, 10.43, repro,
2006-12-28,2.58, -0.39, -3.91, 3.10, 2.49, 10.90, repro,
2006-12-29,3.43, -0.38, -14.47, 2.28, 1.69, 7.41, repro,
2006-12-30,2.15, 0.08, -10.03, 2.28, 1.68, 7.38, repro,
2006-12-31,3.09, 0.15, -10.85, 2.41, 1.77, 7.75, repro,
2007-01-01,1.07, 0.33, 10.25, 4.76, 3.85, 15.61, repro,
2007-01-06,2.03, -1.01, -8.21, 3.83, 3.07, 13.27, repro,
2007-01-07,2.23, -0.03, -7.99, 2.26, 1.61, 7.17, repro,
2007-01-08,4.29, -2.52, -19.12, 4.53, 3.48, 14.48, repro,
2007-01-11,1.74, 0.12, -3.83, 5.26, 3.77, 16.46, repro,
2007-01-12,2.47, 0.20, -12.13, 2.23, 1.56, 7.00, repro,
2007-01-13,2.84, 0.03, -15.24, 2.17, 1.54, 6.84, repro,
2007-01-14,2.71, 0.54, -13.50, 2.53, 1.80, 8.03, repro,
2007-01-15,2.79, 1.08, -19.78, 2.19, 1.56, 6.97, repro,
2007-01-16,3.97, -0.29, -10.33, 2.20, 1.55, 6.90, repro,
2007-01-17,2.64, 0.03, -13.81, 2.21, 1.59, 7.03, repro,
2007-01-18,2.75, 0.26, -13.58, 2.22, 1.58, 7.04, repro,
2007-01-19,23.36, 30.93, 23.27, 61.01, 84.85, 184.83, repro,
2007-01-20,2.69, -3.05, -14.72, 5.11, 4.07, 16.82, repro,
2007-01-21,1.76, 0.37, -10.58, 2.17, 1.54, 6.84, repro,
2007-01-22,2.25, 0.72, -9.87, 2.23, 1.57, 7.06, repro,
2007-01-24,0.91, -0.36, -9.26, 4.39, 3.45, 14.65, repro,
2007-01-25,2.11, -1.26, -11.81, 2.25, 1.58, 7.03, repro,
2007-01-26,2.88, -1.10, -12.69, 2.44, 1.70, 7.39, repro,
2007-01-27,1.71, -0.39, -11.47, 2.17, 1.54, 6.85, repro,
2007-01-28,2.50, -0.63, -13.30, 2.18, 1.55, 6.87, repro,
2007-01-29,2.19, -1.78, -16.57, 2.18, 1.54, 6.85, repro,
2007-01-30,1.88, -1.86, -10.30, 2.17, 1.54, 6.85, repro,
2007-01-31,0.72, -2.49, -8.04, 2.19, 1.55, 6.92, repro,
2007-02-01,1.38, -1.78, -8.12, 2.21, 1.59, 7.02, repro,
2007-02-02,1.81, -2.33, -10.06, 2.21, 1.56, 6.98, repro,
2007-02-03,1.25, -1.79, -9.80, 2.21, 1.56, 6.95, repro,
2007-02-04,0.66, -3.07, -8.11, 2.17, 1.53, 6.79, repro,
2007-02-05,0.57, -2.45, -8.63, 2.18, 1.55, 6.89, repro,
2007-02-06,1.68, -2.60, -9.18, 2.17, 1.55, 6.87, repro,
2007-02-07,1.29, -3.33, -8.25, 2.16, 1.54, 6.83, repro,
2007-02-08,2.62, -2.55, -12.11, 2.21, 1.58, 6.99, repro,
2007-02-09,2.01, -1.82, -8.57, 2.19, 1.60, 7.00, repro,
2007-02-10,0.73, -2.28, -2.91, 2.16, 1.54, 6.82, repro,
2007-02-11,0.67, -2.75, -4.94, 2.18, 1.56, 6.92, repro,
2007-02-12,1.69, -2.87, -6.15, 2.17, 1.55, 6.88, repro,
2007-02-13,1.42, -1.70, -10.26, 2.17, 1.54, 6.83, repro,
2007-02-14,1.83, -2.60, -7.26, 2.18, 1.54, 6.86, repro,
2007-02-15,0.77, -2.83, -2.46, 2.17, 1.55, 6.84, repro,
2007-02-16,0.78, -2.50, -4.85, 2.19, 1.55, 6.89, repro,
2007-02-17,-0.84, -2.73, -3.53, 2.24, 1.59, 7.09, repro,
2007-02-18,-0.40, -1.89, -0.10, 2.24, 1.59, 7.06, repro,
2007-02-19,0.86, -2.18, -1.30, 2.16, 1.54, 6.82, repro,
2007-02-20,3.07, -2.86, 4.91, 2.18, 1.54, 6.87, repro,
2007-02-21,1.07, -2.28, 2.26, 2.18, 1.55, 6.88, repro,
2007-02-22,2.42, -2.63, -3.05, 2.19, 1.55, 6.89, repro,
2007-02-23,1.12, -1.86, -2.94, 2.30, 1.63, 7.24, repro,
2007-02-24,2.20, -2.82, -2.76, 2.18, 1.54, 6.86, repro,
2007-02-25,1.13, -2.60, -0.47, 2.17, 1.54, 6.81, repro,
2007-02-26,2.69, -2.37, -3.54, 2.19, 1.55, 6.88, repro,
2007-02-27,2.66, -2.40, -3.13, 2.20, 1.55, 6.92, repro,
2007-02-28,1.35, -2.65, 1.89, 2.20, 1.55, 6.89, repro,
2007-03-01,0.20, -1.83, -5.85, 2.25, 1.61, 7.11, repro,
2007-03-02,1.23, -1.68, -10.90, 2.25, 1.61, 7.08, repro,
2007-03-03,1.05, -2.24, -14.65, 2.24, 1.59, 7.06, repro,
2007-03-04,0.43, -1.88, -11.81, 2.26, 1.60, 7.13, repro,
2007-03-05,0.48, -2.32, -5.53, 2.26, 1.59, 7.09, repro,
2007-03-06,-0.01, -2.26, -6.10, 2.24, 1.59, 7.05, repro,
2007-03-07,0.91, -3.15, 1.88, 2.23, 1.58, 6.98, repro,
2007-03-08,1.38, -2.61, -6.96, 2.24, 1.59, 7.04, repro,
2007-03-09,0.72, -2.71, -2.07, 2.24, 1.58, 7.03, repro,
2007-03-10,0.35, -2.97, -6.12, 2.32, 1.61, 7.22, repro,
2007-03-11,1.11, -2.41, -8.33, 2.25, 1.58, 7.03, repro,
2007-03-12,0.76, -4.62, -9.74, 2.78, 1.93, 8.37, repro,
2007-03-13,0.68, -2.89, -9.81, 2.20, 1.54, 6.83, repro,
2007-03-14,0.56, -1.21, -3.51, 2.82, 1.91, 8.21, repro,
2007-03-15,2.18, -2.29, -15.36, 2.24, 1.57, 6.98, repro,
2007-03-16,2.02, -1.79, -13.78, 2.23, 1.57, 6.97, repro,
2007-03-17,1.14, -1.92, -6.85, 2.21, 1.56, 6.89, repro,
2007-03-18,1.23, -1.92, -6.90, 2.20, 1.54, 6.83, repro,
2007-03-19,-0.31, -1.60, 0.24, 2.20, 1.54, 6.86, repro,
2007-03-20,4.00, 0.58, -0.78, 3.99, 2.82, 12.34, repro,
2007-03-21,-0.03, -1.73, -6.85, 2.28, 1.57, 6.92, repro,
2007-03-22,0.33, -2.09, -8.21, 2.19, 1.55, 6.87, repro,
2007-03-23,-0.34, -3.77, -15.95, 2.90, 1.94, 8.86, repro,
2007-03-25,3.44, -1.24, 0.36, 4.29, 3.03, 12.46, repro,
2007-03-26,0.93, -1.71, -14.32, 2.20, 1.55, 6.86, repro,
2007-03-27,0.59, -2.28, -12.63, 2.25, 1.56, 6.97, repro,
2007-03-28,0.74, -1.75, -16.33, 2.23, 1.56, 6.94, repro,
2007-03-29,1.13, -0.78, -15.76, 2.22, 1.55, 6.93, repro,
2007-03-30,0.34, -0.77, -18.75, 2.20, 1.54, 6.85, repro,
2007-03-31,1.40, -2.47, -10.33, 2.19, 1.54, 6.82, repro,
2007-04-01,0.94, -2.36, -12.89, 2.20, 1.55, 6.87, repro,
2007-04-02,1.26, -1.15, -13.40, 2.19, 1.55, 6.83, repro,
2007-04-03,1.86, -1.69, -17.15, 2.25, 1.58, 6.99, repro,
2007-04-04,1.10, -0.85, -17.63, 2.26, 1.59, 7.06, repro,
2007-04-05,0.22, -0.97, -12.75, 2.28, 1.61, 7.10, repro,
2007-04-06,1.77, -0.71, -14.92, 2.27, 1.61, 7.10, repro,
2007-04-07,0.60, -1.54, -9.55, 2.26, 1.57, 6.99, repro,
2007-04-08,1.81, -2.09, 0.20, 2.19, 1.53, 6.80, repro,
2007-04-09,-0.15, -2.58, -3.14, 2.19, 1.53, 6.77, repro,
2007-04-10,1.35, -1.81, -8.37, 2.24, 1.56, 6.98, repro,
2007-04-11,1.16, -1.87, -4.33, 2.21, 1.54, 6.87, repro,
2007-04-12,2.27, -1.94, -4.63, 2.21, 1.55, 6.88, repro,
2007-04-13,0.94, -1.53, -6.75, 2.21, 1.53, 6.85, repro,
2007-04-14,1.42, -1.24, -11.23, 2.20, 1.55, 6.85, repro,
2007-04-15,0.57, -0.36, -11.51, 2.21, 1.54, 6.89, repro,
2007-04-16,0.56, -1.15, -10.00, 2.23, 1.53, 6.89, repro,
2007-04-17,1.20, -2.35, -11.05, 2.22, 1.55, 6.94, repro,
2007-04-18,3.16, -1.57, -14.69, 2.22, 1.54, 6.86, repro,
2007-04-19,2.13, -2.64, -10.21, 2.19, 1.52, 6.79, repro,
2007-04-20,0.91, -2.30, -5.62, 2.20, 1.53, 6.81, repro,
2007-04-21,2.55, -2.51, -4.04, 2.21, 1.54, 6.86, repro,
2007-04-22,0.32, -2.81, -6.54, 2.22, 1.55, 6.91, repro,
2007-04-23,1.68, -2.64, -11.08, 2.26, 1.56, 6.98, repro,
2007-04-24,2.17, -1.91, -9.90, 2.24, 1.55, 6.95, repro,
2007-04-25,0.46, -1.10, -6.93, 2.26, 1.56, 6.99, repro,
2007-04-26,0.96, -1.47, -5.71, 2.22, 1.52, 6.84, repro,
2007-04-27,1.45, -1.43, -9.10, 2.20, 1.53, 6.85, repro,
2007-04-28,2.12, -2.21, -11.49, 2.24, 1.54, 6.95, repro,
2007-04-29,1.46, -2.44, -12.79, 2.20, 1.53, 6.87, repro,
2007-04-30,1.18, -2.30, -10.83, 2.23, 1.53, 6.92, repro,
2007-05-01,1.62, -1.37, -8.12, 2.22, 1.53, 6.87, repro,
2007-05-02,1.69, -2.13, -9.55, 2.31, 1.58, 7.19, repro,
2007-05-03,0.31, -1.85, -9.67, 2.29, 1.57, 7.15, repro,
2007-05-04,1.80, -1.76, -6.09, 2.21, 1.53, 6.89, repro,
2007-05-05,1.50, -2.43, -12.38, 2.24, 1.57, 7.07, repro,
2007-05-06,1.40, -1.83, -13.25, 2.25, 1.53, 6.95, repro,
2007-05-07,1.01, -2.18, -10.04, 2.24, 1.53, 6.93, repro,
2007-05-08,1.65, -1.67, -6.95, 2.25, 1.54, 6.97, repro,
2007-05-09,2.55, -1.90, -10.51, 2.23, 1.53, 6.95, repro,
2007-05-10,2.39, -2.16, -15.20, 2.33, 1.59, 7.29, repro,
2007-05-11,1.70, -1.29, -14.75, 2.33, 1.59, 7.33, repro,
2007-05-12,2.56, -2.01, -10.57, 2.26, 1.54, 6.98, repro,
2007-05-13,2.05, -2.21, -8.88, 2.24, 1.53, 6.90, repro,
2007-05-14,2.61, -0.79, -13.96, 2.25, 1.56, 7.05, repro,
2007-05-15,2.77, -1.63, -11.38, 2.24, 1.53, 6.91, repro,
2007-05-16,1.41, -2.08, -6.87, 2.26, 1.54, 7.01, repro,
2007-05-17,2.22, -2.91, -13.02, 2.29, 1.56, 7.13, repro,
2007-05-18,1.85, -3.21, -14.02, 2.34, 1.62, 7.26, repro,
2007-05-19,2.54, -2.05, -12.65, 2.24, 1.55, 7.01, repro,
2007-05-20,1.30, -2.66, -8.97, 2.26, 1.58, 7.04, repro,
2007-05-21,1.84, -2.31, -6.70, 2.22, 1.53, 6.92, repro,
2007-05-22,1.99, -2.60, -12.41, 2.24, 1.52, 6.90, repro,
2007-05-23,2.04, -2.86, -10.51, 2.26, 1.53, 6.93, repro,
2007-05-24,2.07, -2.22, -9.08, 2.30, 1.59, 7.08, repro,
2007-05-25,2.02, -2.30, -8.38, 2.24, 1.54, 6.97, repro,
2007-05-26,2.08, -2.82, -6.80, 2.23, 1.54, 6.94, repro,
2007-05-27,2.46, -2.59, -4.55, 2.24, 1.53, 6.92, repro,
2007-05-28,1.32, -1.44, -7.72, 2.23, 1.53, 6.88, repro,
2007-05-29,2.89, -2.39, -13.18, 2.23, 1.52, 6.83, repro,
2007-05-30,2.12, -2.37, -5.87, 2.29, 1.56, 6.98, repro,
2007-05-31,1.91, -2.41, -10.11, 2.30, 1.58, 7.09, repro,
2007-06-01,2.75, -0.45, -12.26, 2.24, 1.55, 6.98, repro,
2007-06-02,3.92, -2.06, -9.72, 2.22, 1.53, 6.86, repro,
2007-06-03,3.70, -2.35, -8.92, 2.22, 1.52, 6.83, repro,
2007-06-04,0.26, -3.79, -1.84, 2.28, 1.57, 6.98, repro,
2007-06-05,0.67, -1.99, -1.37, 2.29, 1.55, 7.06, repro,
2007-06-06,2.26, -2.25, 1.46, 2.23, 1.54, 6.94, repro,
2007-06-07,1.78, -2.58, -2.59, 2.22, 1.53, 6.86, repro,
2007-06-08,1.74, -1.76, -7.83, 2.21, 1.52, 6.77, repro,
2007-06-09,1.40, -3.44, -8.33, 2.22, 1.53, 6.81, repro,